THORAD AGENA D DEB, 4951

Orbit data source: Space-Track

THORAD AGENA D DEB, 4951 is space debris in SSO originally from a launch on Wed, 08 Apr 1970 UTC launched from the Air Force Western Test Range (AFWTR). Debris objects in space refer to the collection of defunct objects orbiting the Earth. Examples of debris include non-operational satellites, rocket bodies, and fragments generated from explosions, collisions, or faulty payload assembly.

Loading next visibility...
Identifier
4951, 1970-025GM
Orbit
SSO
Country
Flag of USUS
Related business
Manufacturer
Unknown
Mission
Spacecraft
Bus & Motor
Unknown
Mass
Unknown
Launch date (UTC)
1970-04-08 (56 years ago)
Launch vehicle
Unknown
Launch site
Air Force Western Test Range (AFWTR)
Object type
Payload
Rocket body
Debris
Shape & HBR
Unknown shape, 0.1 m
Radar Cross Section
Small (<0.1 m²)

Expand to show TLE details & history
Last TLE update: 20 hours ago

TLE from 20 hours ago
0 THORAD AGENA D DEB
1 04951U 70025GM  25292.22579949  .00000335  00000-0  50360-3 0  9998
2 04951 100.1633 273.3228 0018192   6.4880 125.2458 13.61124784750050
Epoch: 2025-10-19T05:25Z
TLE epoch observation values (Epoch: 2025-10-19T05:25:09.075Z)
Latitude
47.19943°
Longitude
-4.80659°
Altitude
1,046.598 km
Speed
7.329 km/s
True Right ascension
06h 57m 42s
True Declination
47° 02' 05"
Sunlit
Object was in daylight at epoch
Visualization orbit readout
Latitude
Unknown
Longitude
Unknown
Altitude
Unknown
Speed
Unknown
Apparent Right ascension
Unknown
Apparent Declination
Unknown
Sunlit
N/A
Visualization observer readout
Local Sidereal Time
20:15:19
Azimuth
Unknown
Elevation
Unknown
Doppler factor
Unknown
Orbital elements
Apogee altitude
1,042.393 km
Perigee altitude
1,015.443 km
Semi-major axis
7,407.055 km
Eccentricity
0.00182
Inclination
100.1633°
RAAN
273.3228°
Arg. of periapsis
6.488°
True anomaly
125.41583°
Mean anomaly
125.2458°
Eccentric anomaly
125.33084°
Mean motion
3.40467 °/min
Orbital period
105.74 mins
BSTAR
0.0005036

Documentation

Showing up to 5 results
|